[Date Prev][Date Next][Thread Prev][Thread Next] - [Date Index][Thread Index][Author Index]

2 Line ISS Keps 1-26



ISS
1 25544U 98067A   05025.98513889  .00052442  00000-0  42252-3 0  6737
2 25544  51.6490 268.0074 0009314  30.0649 167.0641 15.70322247353327
----
Via the sarex mailing list at AMSAT.ORG courtesy of AMSAT-NA.
To unsubscribe, send "unsubscribe sarex" to Majordomo@amsat.org



AMSAT Top AMSAT Home